TimeCDT,TemperatureF,Dew PointF,Humidity,Sea Level PressureIn,VisibilityMPH,Wind Direction,Wind SpeedMPH,Gust SpeedMPH,PrecipitationIn,Events,Conditions,WindDirDegrees,DateUTC
12:53 AM,-0.9,-7.1,75,30.37,10.0,West,9.2,-,N/A,,Clear,280,2013-03-20 05:53:00
1:53 AM,1.0,-6.0,72,30.36,10.0,WNW,13.8,-,N/A,,Clear,300,2013-03-20 06:53:00
2:53 AM,-0.0,-7.1,72,30.37,10.0,WNW,12.7,-,N/A,,Clear,300,2013-03-20 07:53:00
3:53 AM,1.0,-7.1,69,30.37,10.0,NW,12.7,-,N/A,,Clear,310,2013-03-20 08:53:00
4:53 AM,-4.0,-9.9,76,30.37,10.0,WNW,9.2,-,N/A,,Clear,290,2013-03-20 09:53:00
5:53 AM,-5.1,-11.0,76,30.38,10.0,WNW,12.7,-,N/A,,Clear,290,2013-03-20 10:53:00
6:53 AM,-6.0,-11.9,75,30.38,10.0,WNW,10.4,-,N/A,,Clear,290,2013-03-20 11:53:00
7:53 AM,-5.1,-11.0,76,30.39,10.0,WNW,8.1,-,N/A,,Clear,300,2013-03-20 12:53:00
8:53 AM,-0.9,-9.0,69,30.39,10.0,WNW,9.2,-,N/A,,Clear,290,2013-03-20 13:53:00
9:53 AM,3.0,-6.0,66,30.38,10.0,NW,11.5,-,N/A,,Clear,310,2013-03-20 14:53:00
10:53 AM,7.0,-2.9,64,30.37,10.0,NNW,13.8,-,N/A,,Clear,330,2013-03-20 15:53:00
11:53 AM,9.0,-0.9,64,30.36,10.0,NNW,16.1,-,N/A,,Clear,340,2013-03-20 16:53:00
12:53 PM,12.0,1.0,61,30.35,10.0,NNW,16.1,-,N/A,,Clear,330,2013-03-20 17:53:00
1:53 PM,12.9,1.0,59,30.33,10.0,NNW,16.1,-,N/A,,Clear,330,2013-03-20 18:53:00
2:53 PM,15.1,1.0,54,30.31,10.0,NNW,16.1,-,N/A,,Clear,340,2013-03-20 19:53:00
3:53 PM,15.1,1.0,54,30.30,10.0,NNW,15.0,-,N/A,,Clear,340,2013-03-20 20:53:00
4:53 PM,15.1,1.0,54,30.28,10.0,NNW,16.1,-,N/A,,Clear,330,2013-03-20 21:53:00
5:53 PM,14.0,1.0,56,30.27,10.0,NNW,12.7,-,N/A,,Clear,340,2013-03-20 22:53:00
6:53 PM,12.0,-0.0,59,30.27,10.0,NNW,10.4,-,N/A,,Clear,340,2013-03-20 23:53:00
7:53 PM,7.0,-2.0,67,30.27,10.0,NNW,9.2,-,N/A,,Clear,340,2013-03-21 00:53:00
8:53 PM,3.9,-5.1,66,30.27,10.0,North,8.1,-,N/A,,Clear,350,2013-03-21 01:53:00
9:53 PM,1.0,-7.1,69,30.26,10.0,NNW,9.2,-,N/A,,Clear,330,2013-03-21 02:53:00
10:53 PM,-0.0,-7.1,72,30.25,10.0,NNW,5.8,-,N/A,,Clear,330,2013-03-21 03:53:00
11:53 PM,-4.0,-9.9,76,30.24,10.0,NW,5.8,-,N/A,,Clear,310,2013-03-21 04:53:00